Location: Asheville, NC
(35.6000°N, 82.5500°W)
Time: 04:41:22

HO-68 - Pass Details

Date: 11 January 2018
Orbit: 1193 x 1204 km, 100.1° (Epoch: 20 March)

Event Time Altitude Azimuth Distance (km) Brightness Sun altitude
Rises 20:13:59 0° 207° (SSW) 4,088 ? -31.4°
Reaches altitude 10° 20:17:34 10° 225° (SW) 3,127 ? -32.1°
Maximum altitude 20:22:17 19° 267° (W) 2,535 ? -33.1°
Drops below altitude 10° 20:27:01 10° 309° (NW) 3,133 ? -34.1°
Sets 20:30:39 0° 327° (NNW) 4,100 ? -34.8°
